Date_and_time,latitude,longitude,wind_speed,RelWindDirFrom,WindDirFrom,air_pressure,air_temperature,relative_humidity,Temp,platform_speed_wrt_ground,air_pressure_at_mean_sea_level,platform_orientation
2019-01-26 23:50,50.6304483333333,-96.9807683333333,3.3,4.8,309,996.02,-27.4,51,0.30,0.0,1027.16,270.0
2019-01-27 00:00,50.6304466666667,-96.98077,2.6,4.5,295,996.05,-27.5,51,0.30,0.0,1027.20,131.7
2019-01-27 00:10,50.63045,-96.98081,2.3,3.2,239,996.13,-27.9,53,0.30,0.0,1027.31,131.7
2019-01-27 00:20,50.6304483333333,-96.98077,2.9,4.6,261,996.09,-28.0,54,0.30,0.0,1027.29,131.7
2019-01-27 00:30,50.63045,-96.9807716666667,3.5,4.8,269,996.01,-28.1,55,0.31,0.0,1027.22,131.7
2019-01-27 00:40,50.6304533333333,-96.980765,2.7,4.5,267,996.00,-28.2,56,0.32,0.0,1027.23,131.7
2019-01-27 00:50,50.6304533333333,-96.9807633333333,3.8,5.2,285,995.88,-28.2,56,0.32,0.0,1027.13,131.7
2019-01-27 01:00,50.6304533333333,-96.9807666666667,3.8,5.6,289,995.92,-28.1,55,0.31,0.0,1027.19,90.0
2019-01-27 01:10,50.6304533333333,-96.980765,4.4,6.5,288,996.01,-28.1,55,0.32,0.0,1027.30,90.0
2019-01-27 01:20,50.6304533333333,-96.9807666666667,4.0,6.2,293,996.10,-28.1,56,0.31,0.0,1027.39,90.0
2019-01-27 01:30,50.6304483333333,-96.9807816666667,4.2,6.0,292,996.20,-28.1,56,0.31,0.0,1027.52,90.0
2019-01-27 01:40,50.6304516666667,-96.9807666666667,4.4,6.6,298,996.13,-28.2,56,0.31,0.0,1027.46,90.0
2019-01-27 01:50,50.630455,-96.9807533333333,3.6,4.8,290,996.14,-28.4,56,0.31,0.0,1027.49,90.0
2019-01-27 02:00,50.6304583333333,-96.9807583333333,3.6,5.3,297,996.07,-28.5,57,0.31,0.0,1027.45,54.7
2019-01-27 02:10,50.6304583333333,-96.980765,4.0,5.2,317,995.98,-28.4,56,0.32,0.0,1027.36,54.7
2019-01-27 02:20,50.6304583333333,-96.980765,4.5,6.4,305,996.02,-28.4,56,0.32,0.0,1027.40,54.7
2019-01-27 02:30,50.6304583333333,-96.980765,4.3,5.5,304,996.02,-28.4,57,0.32,0.0,1027.40,54.7
2019-01-27 02:40,50.6304566666667,-96.9807666666667,3.4,5.1,302,996.02,-28.5,57,0.32,0.0,1027.41,54.7
2019-01-27 02:50,50.6304566666667,-96.9807683333333,2.4,3.6,302,995.92,-28.7,58,0.33,0.0,1027.32,54.7
2019-01-27 03:00,50.6304566666667,-96.9807683333333,2.4,3.3,307,995.84,-28.9,57,0.33,0.0,1027.25,38.0
2019-01-27 03:10,50.6304566666667,-96.9807683333333,1.8,3.2,284,995.79,-29.2,58,0.34,0.0,1027.22,38.0
2019-01-27 03:20,50.6304566666667,-96.9807683333333,1.6,2.4,320,995.73,-29.3,60,0.34,0.0,1027.17,38.0
2019-01-27 03:30,50.6304566666667,-96.9807666666667,3.2,4.0,329,995.69,-29.3,59,0.34,0.0,1027.13,38.0
2019-01-27 03:40,50.6304583333333,-96.9807666666667,4.0,4.9,325,995.77,-29.3,58,0.34,0.0,1027.23,38.0
2019-01-27 03:50,50.6304583333333,-96.9807666666667,2.2,3.8,295,995.71,-29.4,58,0.35,0.0,1027.17,38.0
2019-01-27 04:00,50.6304566666667,-96.9807733333333,1.5,2.6,260,995.45,-30.5,61,0.35,0.0,1026.97,270.0
2019-01-27 04:10,50.63047,-96.980825,1.3,2.9,267,995.34,-31.3,63,0.35,0.0,1026.91,270.0
2019-01-27 04:20,50.63044,-96.9807633333333,3.3,4.7,276,995.30,-31.2,66,0.35,0.0,1026.86,270.0
2019-01-27 04:30,50.6304533333333,-96.9807716666667,3.7,4.8,281,995.25,-31.0,64,0.35,0.0,1026.80,270.0
2019-01-27 04:40,50.6304533333333,-96.9807683333333,3.8,5.0,274,995.24,-31.1,64,0.35,0.0,1026.81,270.0
2019-01-27 04:50,50.6304233333333,-96.9807283333333,3.4,4.0,280,995.08,-31.0,64,0.36,0.0,1026.65,270.0
2019-01-27 05:00,50.63045,-96.9807666666667,2.2,3.3,292,995.05,-30.7,64,0.36,0.0,1026.62,228.3
2019-01-27 05:10,50.6304516666667,-96.980765,1.7,2.9,281,994.95,-30.9,65,0.36,0.0,1026.54,228.3
2019-01-27 05:20,50.6304516666667,-96.9807666666667,0.1,1.3,274,994.85,-30.9,65,0.36,0.0,1026.44,228.3
2019-01-27 05:30,50.6304533333333,-96.98077,0.3,1.0,275,994.77,-30.8,64,0.36,0.0,1026.35,228.3
2019-01-27 05:40,50.6304533333333,-96.9807733333333,1.1,1.9,307,994.92,-30.7,65,0.36,0.0,1026.50,228.3
2019-01-27 05:50,50.630455,-96.98078,1.0,1.4,319,995.00,-30.6,65,0.36,0.0,1026.65,228.3
2019-01-27 06:00,50.6304583333333,-96.9807716666667,0.5,1.9,260,995.04,-30.9,65,0.36,0.0,1026.76,347.4
2019-01-27 06:10,50.6304583333333,-96.98077,1.0,2.4,251,994.97,-31.7,65,0.36,0.0,1026.73,347.4
2019-01-27 06:20,50.6304583333333,-96.9807683333333,1.6,2.4,250,994.92,-32.0,66,0.36,0.0,1026.69,347.4
2019-01-27 06:30,50.6304566666667,-96.9807683333333,0.8,1.7,250,994.91,-32.1,67,0.36,0.0,1026.69,347.4
2019-01-27 06:40,50.6304566666667,-96.9807716666667,0.7,1.7,239,994.86,-32.5,65,0.36,0.0,1026.66,347.4
2019-01-27 06:50,50.6304566666667,-96.9807716666667,0.7,1.9,236,994.92,-32.6,66,0.36,0.0,1026.71,347.4
2019-01-27 07:00,50.6304583333333,-96.98077,0.1,0.9,234,994.66,-32.7,67,0.36,0.0,1026.47,12.6
2019-01-27 07:10,50.630455,-96.98077,0.7,1.7,124,994.56,-32.8,66,0.36,0.0,1026.37,12.6
2019-01-27 07:20,50.6304583333333,-96.98077,0.5,1.7,108,994.37,-32.3,66,0.35,0.0,1026.13,12.6
2019-01-27 07:30,50.6304583333333,-96.98077,1.1,1.9,109,994.21,-32.2,66,0.35,0.0,1025.96,12.6
2019-01-27 07:40,50.6304583333333,-96.9807716666667,1.0,1.8,108,994.02,-32.0,66,0.35,0.0,1025.74,12.6
2019-01-27 07:50,50.6304466666667,-96.98076,1.5,2.2,103,993.86,-31.7,67,0.34,0.0,1025.57,12.6
2019-01-27 08:00,50.6304616666667,-96.9807866666667,2.1,3.0,112,993.60,-31.3,67,0.33,0.0,1025.33,302.3
2019-01-27 08:10,50.630455,-96.9807833333333,2.8,4.0,111,993.58,-31.2,67,0.32,0.0,1025.33,302.3
2019-01-27 08:20,50.6304816666667,-96.9807633333333,3.0,4.3,119,993.56,-30.5,68,0.32,0.0,1025.26,302.3
2019-01-27 08:30,50.630455,-96.9807733333333,1.9,3.0,160,993.63,-31.1,67,0.32,0.0,1025.40,302.3
2019-01-27 08:40,50.6304533333333,-96.980765,2.2,3.6,152,993.44,-31.2,67,0.33,0.0,1025.22,302.3
2019-01-27 08:50,50.630455,-96.980765,2.6,4.3,148,993.39,-30.6,67,0.34,0.0,1025.13,302.3
2019-01-27 09:00,50.630455,-96.9807633333333,3.7,5.1,178,993.51,-30.7,66,0.34,0.0,1025.28,167.4
2019-01-27 09:10,50.6304566666667,-96.980765,4.8,6.4,160,993.37,-30.6,67,0.33,0.0,1025.09,167.4
2019-01-27 09:20,50.630445,-96.9807816666667,9.1,11.7,144,992.90,-29.8,67,0.33,0.0,1024.55,167.4
2019-01-27 09:30,50.6304533333333,-96.9807633333333,10.8,12.6,146,992.46,-29.4,64,0.33,0.0,1024.05,167.4
2019-01-27 09:40,50.6304516666667,-96.9807583333333,11.0,13.1,149,992.10,-29.4,62,0.33,0.0,1023.66,167.4
2019-01-27 09:50,50.63045,-96.9807566666667,11.1,12.9,150,991.76,-29.3,61,0.33,0.0,1023.27,167.4
2019-01-27 10:00,50.630455,-96.9807533333333,11.6,14.4,150,991.50,-29.2,62,0.33,0.0,1022.99,125.3
2019-01-27 10:10,50.6304533333333,-96.9807566666667,12.7,15.5,154,991.39,-29.1,61,0.33,0.0,1022.83,125.3
2019-01-27 10:20,50.6304566666667,-96.98078,12.8,15.0,159,991.33,-29.2,63,0.34,0.0,1022.81,125.3
2019-01-27 10:30,50.6304516666667,-96.9807683333333,12.4,14.7,164,991.27,-29.3,63,0.34,0.0,1022.76,125.3
2019-01-27 10:40,50.6304516666667,-96.9807716666667,12.6,14.8,165,991.15,-29.3,63,0.33,0.0,1022.60,125.3
2019-01-27 10:50,50.6304533333333,-96.98077,12.1,14.5,165,991.10,-29.2,63,0.33,0.0,1022.55,125.3
2019-01-27 11:00,50.6304566666667,-96.9807716666667,12.2,14.5,167,991.06,-29.2,62,0.33,0.0,1022.51,137.2
2019-01-27 11:10,50.630455,-96.9807633333333,12.1,15.2,169,990.88,-29.2,61,0.33,0.0,1022.26,137.2
2019-01-27 11:20,50.6304533333333,-96.9807666666667,10.7,13.9,168,990.70,-29.2,61,0.34,0.0,1022.06,137.2
2019-01-27 11:30,50.6304533333333,-96.9807666666667,11.2,14.4,169,990.55,-29.3,61,0.34,0.0,1021.90,137.2
2019-01-27 11:40,50.6304533333333,-96.980765,12.1,15.1,163,990.41,-29.2,60,0.34,0.0,1021.74,137.2
2019-01-27 11:50,50.630455,-96.9807666666667,13.2,16.9,158,989.92,-29.1,61,0.34,0.0,1021.22,137.2
2019-01-27 12:00,50.630455,-96.9807683333333,13.9,16.5,160,989.86,-29.0,61,0.34,0.0,1021.15,0.0
2019-01-27 12:10,50.630455,-96.98077,12.6,15.1,166,989.79,-28.9,61,0.34,0.0,1021.07,0.0
2019-01-27 12:20,50.63045,-96.9807666666667,13.5,16.4,168,989.38,-28.8,61,0.34,0.0,1020.66,0.0
2019-01-27 12:30,50.6304516666667,-96.9807566666667,11.7,15.7,168,989.25,-28.7,60,0.33,0.0,1020.51,0.0
2019-01-27 12:40,50.630455,-96.9807583333333,13.3,15.7,160,988.80,-28.6,60,0.33,0.0,1020.04,0.0
2019-01-27 12:50,50.6304566666667,-96.9807633333333,13.8,16.8,156,988.36,-28.5,60,0.33,0.0,1019.59,0.0
2019-01-27 13:00,50.6304566666667,-96.9807683333333,14.2,17.0,156,988.16,-28.4,61,0.32,0.0,1019.36,270.0
2019-01-27 13:10,50.6304566666667,-96.9807666666667,14.2,16.9,155,988.13,-28.4,60,0.31,0.0,1019.34,270.0
2019-01-27 13:20,50.6304583333333,-96.9807683333333,13.2,16.4,153,988.11,-28.4,61,0.32,0.0,1019.31,270.0
2019-01-27 13:30,50.6304583333333,-96.9807683333333,13.1,16.3,149,988.05,-28.3,62,0.31,0.0,1019.24,270.0
2019-01-27 13:40,50.6304566666667,-96.9807683333333,13.9,16.9,150,987.92,-28.1,61,0.31,0.0,1019.09,270.0
2019-01-27 13:50,50.63049,-96.980775,14.5,17.3,153,987.73,-28.0,61,0.31,0.0,1018.89,270.0
2019-01-27 14:00,50.6304533333333,-96.98076,14.9,17.6,149,987.34,-27.9,61,0.31,0.0,1018.46,90.0
2019-01-27 14:10,50.6304533333333,-96.98076,14.0,18.0,148,986.98,-27.8,61,0.31,0.0,1018.08,90.0
2019-01-27 14:20,50.6304516666667,-96.980765,14.7,17.6,147,986.84,-27.7,62,0.31,0.0,1017.92,90.0
2019-01-27 14:30,50.6304533333333,-96.9807666666667,15.1,17.4,149,986.68,-27.7,61,0.31,0.0,1017.76,90.0
2019-01-27 14:40,50.630455,-96.9807683333333,14.9,17.7,147,986.39,-27.7,62,0.31,0.0,1017.45,90.0
2019-01-27 14:50,50.630455,-96.98077,14.9,19.3,152,986.10,-27.6,62,0.30,0.0,1017.13,90.0
2019-01-27 15:00,50.630455,-96.9807683333333,16.1,19.7,147,985.69,-27.5,62,0.30,0.0,1016.70,0.0
2019-01-27 15:10,50.630455,-96.9807683333333,16.0,20.0,153,985.51,-27.3,60,0.30,0.0,1016.50,0.0
2019-01-27 15:20,50.6304566666667,-96.9807683333333,15.4,18.3,153,985.53,-27.0,61,0.30,0.0,1016.51,0.0
2019-01-27 15:30,50.6304566666667,-96.9807683333333,15.6,19.6,150,985.50,-26.9,61,0.30,0.0,1016.46,0.0
2019-01-27 15:40,50.6304566666667,-96.9807683333333,16.9,20.2,149,985.32,-26.8,61,0.30,0.0,1016.26,0.0
2019-01-27 15:50,50.630455,-96.9807666666667,16.7,21.3,151,985.09,-26.7,61,0.30,0.0,1016.00,0.0
2019-01-27 16:00,50.630455,-96.9807666666667,16.8,21.0,148,984.86,-26.5,61,0.30,0.0,1015.74,0.0
2019-01-27 16:10,50.630455,-96.9807666666667,17.4,21.7,151,984.62,-26.3,61,0.30,0.0,1015.48,0.0
2019-01-27 16:20,50.630455,-96.980765,18.4,21.9,153,984.36,-26.1,60,0.30,0.0,1015.20,0.0
2019-01-27 16:30,50.6304316666667,-96.98077,17.5,23.3,149,984.22,-25.8,61,0.31,0.0,1015.04,0.0
2019-01-27 16:40,50.63043,-96.9807483333333,17.7,21.0,143,984.10,-25.6,62,0.30,0.0,1014.89,0.0
2019-01-27 16:50,50.6304466666667,-96.980765,18.1,20.9,142,983.94,-25.5,63,0.31,0.0,1014.72,0.0
2019-01-27 17:00,50.63045,-96.9807616666667,17.8,21.9,140,983.70,-25.2,62,0.31,0.0,1014.44,90.0
2019-01-27 17:10,50.63045,-96.98076,18.8,23.0,139,983.44,-25.0,61,0.30,0.0,1014.14,90.0
2019-01-27 17:20,50.6304516666667,-96.9807616666667,18.9,23.5,137,983.24,-24.7,61,0.30,0.0,1013.90,90.0
2019-01-27 17:30,50.63045,-96.9807633333333,16.7,21.2,134,983.12,-24.4,60,0.31,0.0,1013.76,90.0
2019-01-27 17:40,50.6304516666667,-96.9807633333333,16.2,20.4,125,982.93,-23.8,61,0.31,0.0,1013.52,90.0
2019-01-27 17:50,50.6304516666667,-96.9807633333333,17.3,22.6,126,982.53,-23.7,59,0.31,0.0,1013.08,90.0
2019-01-27 18:00,50.6304516666667,-96.9807633333333,17.4,20.3,122,982.29,-23.3,61,0.31,0.0,1012.80,90.0
2019-01-27 18:10,50.6304516666667,-96.9807633333333,16.6,21.2,121,982.09,-23.0,62,0.30,0.0,1012.56,90.0
2019-01-27 18:20,50.6304516666667,-96.980765,19.2,22.5,122,981.89,-22.9,60,0.30,0.0,1012.33,90.0
2019-01-27 18:30,50.6304516666667,-96.980765,17.8,20.6,120,981.76,-22.7,61,0.30,0.0,1012.18,90.0
2019-01-27 18:40,50.6304516666667,-96.980765,18.2,21.8,121,981.65,-22.6,61,0.29,0.0,1012.04,90.0
2019-01-27 18:50,50.6304516666667,-96.980765,17.2,20.9,122,981.61,-22.4,62,0.29,0.0,1011.98,90.0
2019-01-27 19:00,50.6304516666667,-96.9807633333333,18.0,22.4,125,981.40,-22.3,59,0.30,0.0,1011.75,90.0
2019-01-27 19:10,50.6304516666667,-96.980765,15.5,20.3,126,981.29,-22.1,60,0.30,0.0,1011.60,90.0
2019-01-27 19:20,50.6304583333333,-96.980755,16.4,20.8,117,981.12,-21.8,60,0.31,0.0,1011.38,90.0
2019-01-27 19:30,50.6304566666667,-96.9807683333333,15.9,20.5,112,980.96,-21.7,63,0.31,0.0,1011.18,90.0
2019-01-27 19:40,50.6304583333333,-96.98077,17.0,19.8,114,980.79,-21.5,60,0.31,0.0,1010.99,90.0
2019-01-27 19:50,50.630455,-96.98077,18.0,20.9,118,980.69,-21.3,60,0.31,0.0,1010.85,90.0
2019-01-27 20:00,50.630455,-96.9807716666667,18.1,21.5,119,980.57,-21.1,60,0.31,0.0,1010.69,270.0
2019-01-27 20:10,50.630455,-96.9807716666667,18.2,21.9,120,980.36,-21.0,62,0.31,0.0,1010.47,270.0
2019-01-27 20:20,50.630455,-96.9807716666667,19.0,21.7,117,980.37,-20.9,62,0.31,0.0,1010.46,270.0
2019-01-27 20:30,50.6304666666667,-96.9807833333333,15.8,18.7,112,980.52,-20.9,66,0.32,0.0,1010.60,270.0
2019-01-27 20:40,50.63046,-96.9807683333333,17.0,20.7,112,980.56,-20.8,67,0.33,0.0,1010.63,270.0
2019-01-27 20:50,50.63046,-96.980765,17.7,20.3,114,980.58,-20.8,66,0.32,0.0,1010.64,270.0
2019-01-27 21:00,50.63046,-96.980765,16.4,19.5,115,980.60,-20.6,67,0.32,0.0,1010.64,38.0
2019-01-27 21:10,50.630435,-96.9807466666667,16.4,20.3,105,980.65,-20.5,68,0.33,0.0,1010.66,38.0
2019-01-27 21:20,50.6304533333333,-96.9807566666667,18.2,21.2,100,980.60,-20.6,69,0.33,0.0,1010.61,38.0
2019-01-27 21:30,50.6304533333333,-96.98076,19.3,22.1,98,980.55,-20.6,68,0.33,0.0,1010.55,38.0
2019-01-27 21:40,50.63047,-96.9807716666667,18.3,21.4,99,980.68,-20.6,70,0.33,0.0,1010.67,38.0
2019-01-27 21:50,50.630425,-96.9807566666667,18.2,22.0,99,980.81,-20.6,71,0.34,0.0,1010.80,38.0
2019-01-27 22:00,50.6304516666667,-96.98076,18.1,21.6,97,980.86,-20.6,72,0.34,0.0,1010.84,90.0
2019-01-27 22:10,50.63045,-96.9807616666667,18.3,22.1,101,980.86,-20.6,73,0.35,0.0,1010.84,90.0
2019-01-27 22:20,50.630435,-96.9807433333333,18.2,21.1,100,981.05,-20.6,74,0.36,0.0,1011.02,90.0
2019-01-27 22:30,50.6304533333333,-96.9807683333333,17.6,21.0,100,981.10,-20.5,75,0.36,0.0,1011.07,90.0
2019-01-27 22:40,50.6304583333333,-96.9807683333333,18.0,21.1,101,981.09,-20.4,75,0.36,0.0,1011.05,90.0
2019-01-27 22:50,50.63046,-96.980765,17.6,21.7,101,981.05,-20.4,76,0.36,0.0,1010.99,90.0
2019-01-27 23:00,50.6304566666667,-96.9807683333333,17.7,21.8,100,981.16,-20.3,75,0.36,0.0,1011.10,90.0
2019-01-27 23:10,50.630455,-96.98077,17.5,20.8,99,981.32,-20.2,75,0.37,0.0,1011.27,90.0
2019-01-27 23:20,50.6304533333333,-96.98077,16.5,21.2,97,981.35,-20.1,75,0.37,0.0,1011.30,90.0
2019-01-27 23:30,50.6304533333333,-96.9807716666667,16.9,20.3,100,981.44,-20.0,75,0.37,0.0,1011.38,90.0
